TimeAKST,TemperatureF,Dew PointF,Humidity,Sea Level PressureIn,VisibilityMPH,Wind Direction,Wind SpeedMPH,Gust SpeedMPH,PrecipitationIn,Events,Conditions,WindDirDegrees,DateUTC
12:39 AM,33.8,30.2,87,30.30,10.0,Calm,Calm,-,N/A,,Overcast,0,2013-01-12 09:39:00
12:53 AM,33.1,30.0,89,30.31,10.0,Calm,Calm,-,N/A,,Overcast,0,2013-01-12 09:53:00
1:53 AM,33.1,30.0,89,30.32,10.0,Calm,Calm,-,N/A,,Overcast,0,2013-01-12 10:53:00
3:53 AM,34.0,30.0,85,30.34,10.0,Calm,Calm,-,N/A,,Overcast,0,2013-01-12 12:53:00
4:12 AM,35.6,26.6,70,30.33,10.0,North,3.5,-,N/A,,Overcast,360,2013-01-12 13:12:00
4:40 AM,35.6,28.4,75,30.34,10.0,Calm,Calm,-,N/A,,Overcast,0,2013-01-12 13:40:00
4:53 AM,34.0,28.9,82,30.35,10.0,Calm,Calm,-,N/A,,Overcast,0,2013-01-12 13:53:00
5:07 AM,33.8,28.4,81,30.35,10.0,Calm,Calm,-,N/A,,Overcast,0,2013-01-12 14:07:00
5:43 AM,32.0,28.4,87,30.36,10.0,Calm,Calm,-,N/A,,Mostly Cloudy,0,2013-01-12 14:43:00
5:53 AM,32.0,28.9,88,30.37,10.0,Calm,Calm,-,N/A,,Overcast,0,2013-01-12 14:53:00
6:53 AM,32.0,28.9,88,30.39,10.0,Calm,Calm,-,N/A,,Overcast,0,2013-01-12 15:53:00
7:53 AM,32.0,28.9,88,30.39,10.0,Calm,Calm,-,N/A,,Overcast,0,2013-01-12 16:53:00
8:53 AM,33.1,30.0,89,30.40,10.0,NE,3.5,-,N/A,,Overcast,40,2013-01-12 17:53:00
9:53 AM,35.1,-9999,N/A,30.42,10.0,Calm,Calm,-,N/A,,Overcast,0,2013-01-12 18:53:00
10:53 AM,37.0,-9999,N/A,30.42,10.0,Calm,Calm,-,N/A,,Overcast,0,2013-01-12 19:53:00
11:53 AM,37.9,-9999,N/A,30.42,10.0,Calm,Calm,-,N/A,,Overcast,0,2013-01-12 20:53:00
12:53 PM,39.0,30.9,73,30.42,10.0,Calm,Calm,-,N/A,,Overcast,0,2013-01-12 21:53:00
1:53 PM,39.9,35.1,83,30.43,10.0,Calm,Calm,-,N/A,,Overcast,0,2013-01-12 22:53:00
2:02 PM,39.2,-9999,N/A,30.42,10.0,Calm,Calm,-,N/A,,Overcast,0,2013-01-12 23:02:00
2:34 PM,39.2,32.0,75,30.42,10.0,Calm,Calm,-,N/A,,Overcast,0,2013-01-12 23:34:00
2:44 PM,37.4,32.0,81,30.42,10.0,Calm,Calm,-,N/A,,Overcast,0,2013-01-12 23:44:00
2:53 PM,37.9,32.0,79,30.43,10.0,Calm,Calm,-,N/A,,Overcast,0,2013-01-12 23:53:00
3:43 PM,37.4,32.0,81,30.42,10.0,Calm,Calm,-,N/A,,Overcast,0,2013-01-13 00:43:00
4:53 PM,34.0,30.9,89,30.44,10.0,Calm,Calm,-,N/A,,Overcast,0,2013-01-13 01:53:00
5:27 PM,33.8,30.2,87,30.42,10.0,Calm,Calm,-,N/A,,Overcast,0,2013-01-13 02:27:00
5:53 PM,33.1,30.9,92,30.42,10.0,Calm,Calm,-,N/A,,Overcast,0,2013-01-13 02:53:00
6:30 PM,33.8,30.2,87,30.42,10.0,Calm,Calm,-,N/A,,Overcast,0,2013-01-13 03:30:00
6:53 PM,34.0,30.9,89,30.43,10.0,Calm,Calm,-,N/A,,Overcast,0,2013-01-13 03:53:00
7:53 PM,33.1,32.0,96,30.43,10.0,Calm,Calm,-,N/A,,Overcast,0,2013-01-13 04:53:00
8:53 PM,33.1,30.9,92,30.43,10.0,Calm,Calm,-,N/A,,Overcast,0,2013-01-13 05:53:00
9:53 PM,34.0,32.0,92,30.43,10.0,Calm,Calm,-,N/A,,Overcast,0,2013-01-13 06:53:00
10:53 PM,36.0,33.1,89,30.43,10.0,Calm,Calm,-,N/A,,Overcast,0,2013-01-13 07:53:00
11:42 PM,35.6,33.8,93,30.41,10.0,Calm,Calm,-,N/A,,Overcast,0,2013-01-13 08:42:00
11:53 PM,37.0,34.0,89,30.42,10.0,SSE,4.6,-,N/A,,Overcast,150,2013-01-13 08:53:00